EDMOLIML

Guest
Details From EDMO - Oberpfaffenhofen
To LIML - Milano Linate
Flight Number -
Tags generated
Created
Modified
Stats Distance 179 nm / 331 km
Max Altitude 18,100 ft / 5,517 m
Waypoints 3
Social Downloads 0
Likes 0
Share VATSIM

Download

Looking for another format? Having issues loading an existing format? Contact us
Advertisement - Login to hide

Notes

Basic altitude profile: - Ascent Rate: 2500ft/min - Ascent Speed: 250kts - Cruise Altitude: 35000ft - Cruise Speed: 420kts - Descent Rate: 1500ft/min - Descent Speed: 250kts

Route

EDMO RONAK LIML

ID Type Via Altitude Latitude Longitude Leg Dist Tot Dist Heading (true) Name
O EDMO APT - 0 ft / 0 m 48.08162˚ 11.28342˚ - 0 nm - Oberpfaffenhofen
RONAK FIX - 18,100 ft / 5,517 m 46.81056˚ 10.15056˚ 89 nm 89 nm 211° / 211° -
O LIML APT - 0 ft / 0 m 45.45030˚ 9.27280˚ 89 nm 178 nm 204° / 204° Milano Linate

Altitude Profile

Advertisement - Login to hide

Weather


0- 5 10 15 20 25 30 35+ Temperature / ° C

Clouds and Precipitation
Forecast for 2018-05-22 12:00 UTC. Updated 2 hours ago

Ground ~20,000 ft ~40,000 ft Winds

EDMO

Details ICAO EDMO (OBF)
Name Oberpfaffenhofen
Region Germany - Civil
Timezone Europe/Berlin (UTC+2.0)
Stats Elevation 1,947 ft / 593 m (AMSL)
Location 48.081620° 11.283418°
Runways 1
Magnetic Variation 3.083° E

METAR

EDMO 221020Z 07004KT CAVOK 21/13 Q1012

Decode

TAF

Not found

Departure Runways

ID Width Length Bearing (true) Bearing (mag) Surface Threshold Offset Overrun Length
04 147 ft / 45 m 7,491 ft / 2,283 m 42.36° 39.28° Asphalt 0 ft / 0 m 231 ft / 70 m
22 147 ft / 45 m 7,491 ft / 2,283 m 222.38° 219.30° Asphalt 0 ft / 0 m 0 ft / 0 m

LIML

Details ICAO LIML (LIN)
Name Milano Linate
Region Italy
Timezone Europe/Rome (UTC+2.0)
Stats Elevation 353 ft / 108 m (AMSL)
Location 45.450302° 9.272801°
Runways 2
Magnetic Variation 2.551° E

METAR

LIML 221020Z 14004KT 100V190 8000 -RA SCT012 BKN025 18/15 Q1014 NOSIG

Decode

TAF

TAF LIML 220500Z 2206/2306 VRB05KT 6000 RA SCT030 BKN060 TEMPO 2212/2220 TSRA BECMG 2221/2224 NSW

Decode

Destination Runways

ID Width Length Bearing (true) Bearing (mag) Surface Threshold Offset Overrun Length
17 72 ft / 22 m 1,975 ft / 602 m 175.64° 173.09° Asphalt 200 ft / 61 m 0 ft / 0 m
18 197 ft / 60 m 8,017 ft / 2,443 m 175.67° 173.12° Asphalt 0 ft / 0 m 190 ft / 58 m
35 72 ft / 22 m 1,975 ft / 602 m 355.64° 353.09° Asphalt 200 ft / 61 m 0 ft / 0 m
36 197 ft / 60 m 8,017 ft / 2,443 m 355.68° 353.13° Asphalt 0 ft / 0 m 980 ft / 299 m

Approach Navaids

Runway Type Ident Frequency Range Bearing (true) Bearing (mag) Slope Elevation
36 Localiser ILNT 109.55 MHz 18 nm / 33 km 355.68° 353.13° - 353 ft / 108 m (AMSL)
36 Glidescope ILNT 109.55 MHz 10 nm / 19 km 355.68° 353.13° 3.00° 352 ft / 107 m (AMSL)
36 DME ILNT 109.55 MHz 25 nm / 46 km - - - 352 ft / 107 m (AMSL)

Popular Alternatives